[[{"header":{"parameterUnit":"m.s-1","parameterCategory":2,"la1":30.2991,"la2":30.254,"lo1":-89.0895,"lo2":-89.0444,"dy":0.0017,"dx":0.0017,"nx":28,"ny":28,"refTime":"2024-04-28T09:00:00:Z","depth":"0","parameterNumber":2,"parameterNumberName":"U-component_of_CURRENTS"},"data":[0,0,0,0,0,0,0,0,0,0,0,0,0,0,0,0,0,0,0,0,0,0,0,0,0,0,0,0,0,0,0,0,0,0,0,0,0,0,0,0,0,0,0,0,0,0,0,0,0,0,0,0,0,0,0,0,0,0,0.3178,0.3178,0,0.3204,0.3204,0.3204,0.3193,0.3193,0.3192,0.3192,0.3194,0.3195,0.3195,0,0,0,0,0,0,0,0,0,0,0,0,0,0.3121,0.3122,0.3177,0.3178,0.3179,0.3204,0.3204,0.3204,0.3193,0.3193,0.3192,0.3192,0.3194,0.3195,0.3195,0,0,0,0,0,0,0,0,0,0,0,0,0,0.3143,0.3122,0.3177,0.3178,0.3179,0.3204,0.3204,0.3204,0.3193,0.3193,0.3192,0.3192,0.3194,0.3195,0.3195,0.3211,0,0,0.3197,0.3198,0,0,0,0,0,0,0,0,0.3142,0.3145,0.3178,0.3178,0.3179,0.3197,0.3185,0.3206,0.3193,0.3185,0.3192,0.3191,0.3195,0.3196,0.3198,0.3211,0.3211,0.3197,0.3198,0.3198,0.3198,0,0,0,0,0,0,0,0.3141,0.3144,0.3185,0.3178,0.3179,0.3179,0.3181,0.3189,0.319,0.3186,0.3186,0.3193,0.3195,0.3198,0.3198,0.3211,0.3197,0.3198,0.3198,0.3199,0.3363,0.3367,0,0,0,0,0,0,0.3144,0.3143,0.3184,0.3186,0.3162,0.3181,0.3183,0.319,0.3191,0.3191,0.3194,0.3193,0.3197,0.3198,0.3198,0.3309,0.3198,0.3199,0.3199,0.3359,0.3364,0.3368,0,0,0,0,0,0,0.3142,0.3147,0.3183,0.3167,0.3172,0.3182,0.319,0.3191,0.32,0.3198,0.3197,0.3204,0.3197,0.3198,0.3242,0.3305,0.3199,0.3199,0.3354,0.336,0.3366,0.347,0,0,0,0,0,0,0.314,0.3146,0.3149,0.3167,0.3173,0.3215,0.3191,0.3192,0.3207,0.3206,0.3206,0.3205,0.3196,0.3242,0.3243,0.3304,0.32,0.3349,0.3357,0.3364,0.3462,0.3479,0.3494,0,0,0,0,0,0.3138,0.3147,0.3148,0.3154,0.3177,0.3217,0.322,0.3223,0.3208,0.3226,0.324,0.3206,0.3291,0.3245,0.3245,0.3308,0.3345,0.3355,0.3363,0.3455,0.3476,0.3494,0,0,0,0,0,0,0.3117,0.3148,0.3149,0.3164,0.3196,0.3216,0.3228,0.3231,0.3253,0.3251,0.3241,0.3244,0.3312,0.3301,0.3251,0.3385,0.3319,0.3328,0.3388,0.3408,0.3424,0.3375,0.32,0,0,0,0,0,0.3117,0.3135,0.3166,0.3181,0.3197,0.3214,0.3226,0.3235,0.3259,0.3266,0.3272,0.3298,0.335,0.3368,0.3396,0.3455,0.3408,0.3505,0.3521,0.3534,0.35,0.3495,0.3505,0.3397,0.3397,0.3397,0,0,0.3111,0.3132,0.314,0.3179,0.3198,0.3234,0.322,0.3251,0.3292,0.3264,0.3315,0.3344,0.3379,0.3458,0.3488,0.3454,0.3553,0.3546,0.3556,0.3514,0.3505,0.3514,0.3522,0.3404,0.3402,0.3401,0,0,0.3117,0.3132,0.3152,0.3184,0.3226,0.3249,0.3263,0.3297,0.3323,0.3384,0.3394,0.346,0.351,0.3561,0.3593,0.3714,0.3636,0.3735,0.3772,0.377,0.3776,0.3782,0.3769,0.3772,0.3744,0.3745,0.3745,0,0.3108,0.3132,0.3165,0.3199,0.3222,0.3261,0.3289,0.3339,0.3386,0.3408,0.3415,0.3517,0.3565,0.366,0.3726,0.3748,0.371,0.3693,0.3784,0.3788,0.3791,0.3777,0.3779,0.3751,0.375,0.3749,0.3749,0,0.3129,0.3153,0.3172,0.3228,0.3266,0.3299,0.337,0.3414,0.3452,0.3487,0.3576,0.3646,0.369,0.376,0.3785,0.3859,0.3814,0.38,0.3719,0.3807,0.3789,0.3789,0.376,0.3757,0.3756,0.3754,0,0,0.3092,0.3167,0.3174,0.3193,0.3278,0.3306,0.3396,0.3466,0.3505,0.3582,0.3623,0.3774,0.3775,0.3812,0.3861,0.3892,0.3941,0.3857,0.3855,0.3814,0.3906,0.3878,0.3875,0.3919,0.3919,0.3919,0.3893,0,0.3093,0.3139,0.3188,0.324,0.3266,0.3336,0.341,0.3485,0.3555,0.3613,0.3703,0.3772,0.381,0.3845,0.3882,0.3926,0.3938,0.3947,0.3849,0.3846,0.3785,0.3873,0.3784,0.3752,0.3892,0.3892,0.3892,0,0.309,0.3121,0.316,0.3229,0.3246,0.3291,0.338,0.3454,0.3563,0.3614,0.3678,0.3731,0.383,0.3836,0.3897,0.3887,0.389,0.3913,0.3912,0.3831,0.3817,0.3683,0.3745,0.37,0.3891,0.3891,0.3891,0,0.3029,0.3099,0.3121,0.3147,0.3241,0.327,0.3325,0.3437,0.35,0.3603,0.3646,0.3726,0.3792,0.3798,0.3884,0.3871,0.3917,0.3903,0.3868,0.3866,0.3741,0.3728,0.3711,0.3896,0.3896,0.3896,0.3896,0,0.3003,0.302,0.3089,0.31,0.3137,0.3216,0.3274,0.3348,0.3449,0.3518,0.3623,0.3689,0.3781,0.3838,0.3858,0.3875,0.389,0.3867,0.3858,0.3784,0.3775,0.3688,0.366,0.3895,0.3895,0.3896,0.3896,0,0.2942,0.2986,0.3011,0.3084,0.3109,0.3134,0.3239,0.3276,0.339,0.3478,0.3512,0.3666,0.375,0.3826,0.3879,0.3863,0.3772,0.3865,0.3778,0.3758,0.3658,0.364,0.336,0.3265,0.3793,0.3793,0.3792,0,0.2916,0.292,0.2981,0.2991,0.3022,0.3076,0.3111,0.323,0.3284,0.3465,0.3494,0.3629,0.3714,0.3792,0.3812,0.3816,0.3727,0.3715,0.3685,0.3638,0.3611,0.3423,0.335,0.3575,0.3573,0.3571,0.3569,0,0.2864,0.2882,0.2902,0.292,0.2945,0.298,0.3044,0.3075,0.3222,0.3316,0.3429,0.3511,0.3642,0.3655,0.3704,0.3688,0.3548,0.3672,0.364,0.3447,0.3218,0.3128,0.3611,0.3551,0.3553,0.3554,0.3555,0.3556,0.282,0.2813,0.2832,0.2838,0.2859,0.2856,0.2845,0.2932,0.3004,0.3108,0.3277,0.3363,0.3518,0.3587,0.3551,0.3481,0.3404,0.3402,0.3387,0.3202,0.3086,0.3532,0.3459,0.346,0.3461,0.3462,0.3463,0,0.275,0.2743,0.2746,0.2735,0.2697,0.2751,0.2773,0.2744,0.2773,0.2935,0.3035,0.3204,0.3246,0.3332,0.3359,0.3251,0.3053,0.316,0.29,0.2848,0.3279,0.3255,0.3113,0.3113,0.3113,0.3113,0.3114,0.3114,0.2715,0.2677,0.2666,0.2573,0.2554,0.2477,0.2453,0.2446,0.252,0.2606,0.2715,0.2844,0.3092,0.3206,0.3157,0.3078,0.2851,0.268,0.2656,0.3042,0.3063,0.3084,0.3057,0.2877,0.2876,0.2104,0.2099,0.2095]},{"header":{"parameterUnit":"m.s-1","parameterCategory":2,"la1":30.2991,"la2":30.254,"lo1":-89.0895,"lo2":-89.0444,"dy":0.0017,"dx":0.0017,"nx":28,"ny":28,"refTime":"2024-04-28T09:00:00:Z","depth":"0","parameterNumber":3,"parameterNumberName":"V-component_of_CURRENTS"},"data":[0,0,0,0,0,0,0,0,0,0,0,0,0,0,0,0,0,0,0,0,0,0,0,0,0,0,0,0,0,0,0,0,0,0,0,0,0,0,0,0,0,0,0,0,0,0,0,0,0,0,0,0,0,0,0,0,0,0,0.0282,0.0282,0,0.0224,0.0224,0.0223,0.0188,0.0188,0.0188,0.0188,0.0148,0.0147,0.0146,0,0,0,0,0,0,0,0,0,0,0,0,0,0.0317,0.0317,0.0282,0.0282,0.0281,0.0224,0.0224,0.0223,0.0188,0.0188,0.0188,0.0188,0.0148,0.0147,0.0146,0,0,0,0,0,0,0,0,0,0,0,0,0,0.0285,0.0317,0.0282,0.0257,0.0254,0.0225,0.0224,0.0223,0.0188,0.0188,0.0188,0.0188,0.0149,0.0147,0.0146,0.0142,0,0,0.0142,0.0141,0,0,0,0,0,0,0,0,0.0287,0.0283,0.0261,0.0259,0.0255,0.0213,0.0221,0.0197,0.0188,0.0213,0.0188,0.0187,0.0172,0.0169,0.0158,0.014,0.0138,0.0142,0.0141,0.014,0.014,0,0,0,0,0,0,0,0.0289,0.0285,0.0259,0.0261,0.0257,0.0233,0.0228,0.0216,0.0194,0.0211,0.0208,0.0202,0.017,0.0159,0.0157,0.0138,0.0142,0.0141,0.014,0.0139,0.0127,0.0128,0,0,0,0,0,0,0.0299,0.0288,0.0261,0.0257,0.0271,0.0233,0.0228,0.0227,0.0194,0.0189,0.0202,0.0201,0.0161,0.0158,0.0155,0.0178,0.014,0.0139,0.0138,0.0127,0.0127,0.0128,0,0,0,0,0,0,0.03,0.0298,0.0263,0.0271,0.0265,0.0233,0.0232,0.0226,0.0219,0.0188,0.0183,0.0202,0.0161,0.0157,0.0155,0.0175,0.0138,0.0137,0.0126,0.0127,0.0128,0.0205,0,0,0,0,0,0,0.0302,0.0299,0.0305,0.0272,0.0265,0.0256,0.0232,0.0225,0.0215,0.0213,0.0186,0.0181,0.0161,0.0158,0.0154,0.0173,0.0136,0.0126,0.0127,0.0128,0.0202,0.0208,0.0214,0,0,0,0,0,0.0303,0.0316,0.0306,0.0302,0.0274,0.0257,0.0251,0.0227,0.0216,0.0218,0.0202,0.0182,0.0161,0.0157,0.0153,0.0171,0.0125,0.0126,0.0127,0.0199,0.0207,0.0214,0,0,0,0,0,0,0.0332,0.0312,0.0301,0.0306,0.0287,0.0251,0.0254,0.0233,0.0221,0.0223,0.0191,0.0186,0.0191,0.0169,0.0165,0.0169,0.0139,0.0139,0.0195,0.0202,0.0208,0.0226,0.0135,0,0,0,0,0,0.0342,0.0349,0.032,0.0325,0.032,0.0288,0.0279,0.0262,0.0244,0.0237,0.0215,0.0197,0.0191,0.0187,0.0173,0.0178,0.0143,0.0185,0.0191,0.0196,0.0207,0.0167,0.0171,0.0132,0.0132,0.0132,0,0,0.0353,0.0344,0.0347,0.0332,0.0317,0.0324,0.0282,0.0277,0.0288,0.0237,0.0247,0.0218,0.0196,0.0202,0.0202,0.0188,0.0188,0.0198,0.0203,0.021,0.0169,0.0173,0.0176,0.0133,0.0133,0.0132,0,0,0.0384,0.0375,0.0392,0.0384,0.0369,0.0353,0.0355,0.0325,0.0319,0.032,0.0289,0.0275,0.0258,0.0246,0.024,0.027,0.0221,0.0261,0.031,0.0272,0.0275,0.0277,0.0236,0.0234,0.0265,0.0266,0.0266,0,0.0398,0.0418,0.0393,0.0409,0.0414,0.0373,0.0396,0.0386,0.0358,0.0361,0.0337,0.0307,0.0284,0.0296,0.0305,0.0286,0.025,0.0287,0.028,0.0282,0.0283,0.024,0.0237,0.0269,0.0269,0.0269,0.0268,0,0.0442,0.046,0.0471,0.0484,0.0484,0.0497,0.0482,0.0486,0.047,0.0449,0.0446,0.0403,0.0386,0.0373,0.0351,0.0351,0.0318,0.0292,0.0265,0.0292,0.0244,0.024,0.0275,0.0274,0.0272,0.0271,0,0,0.0472,0.0498,0.0503,0.053,0.0528,0.0537,0.0567,0.0576,0.0601,0.0558,0.0577,0.0544,0.0498,0.0488,0.0445,0.0411,0.0383,0.0359,0.0355,0.0325,0.0291,0.0295,0.0289,0.035,0.035,0.035,0.0255,0,0.0516,0.057,0.0568,0.0626,0.0656,0.0645,0.0678,0.0681,0.067,0.0675,0.0623,0.0615,0.055,0.0539,0.0496,0.0418,0.0374,0.0411,0.0265,0.0261,0.0266,0.0286,0.0337,0.026,0.025,0.0249,0.0249,0,0.0564,0.0597,0.066,0.0715,0.0727,0.0757,0.0807,0.0829,0.0824,0.0813,0.0781,0.0725,0.068,0.0614,0.0488,0.0511,0.041,0.0336,0.033,0.0306,0.0257,0.0231,0.0251,0.0149,0.0241,0.0241,0.0242,0,0.0609,0.0667,0.0724,0.074,0.0788,0.0827,0.0856,0.0871,0.0909,0.0893,0.0907,0.0822,0.0798,0.0662,0.0512,0.0493,0.0366,0.0317,0.0221,0.0219,0.0223,0.0223,0.0135,0.0219,0.0219,0.0219,0.0219,0,0.0663,0.071,0.0755,0.0788,0.0877,0.0885,0.0969,0.0985,0.1014,0.1071,0.0977,0.0998,0.0807,0.0711,0.0548,0.0386,0.0389,0.0237,0.0201,0.0251,0.0254,0.0132,0.0049,0.0215,0.0216,0.0217,0.0218,0,0.0706,0.0728,0.0803,0.0869,0.0901,0.0966,0.1058,0.1114,0.1127,0.1201,0.1201,0.1131,0.1011,0.0814,0.0603,0.0455,0.0215,0.0217,0.029,0.0265,0.0078,-0.0002,-0.0144,-0.0225,0.009,0.009,0.009,0,0.0732,0.0773,0.0867,0.0922,0.0959,0.1054,0.1124,0.1171,0.1238,0.1294,0.1341,0.125,0.1222,0.0919,0.0635,0.0357,0.0211,0.0207,0.0179,0.0087,-0.0031,-0.0079,-0.0141,0.0204,0.0204,0.0205,0.0205,0,0.0786,0.0814,0.0877,0.0993,0.108,0.1187,0.1293,0.1368,0.1435,0.1504,0.1577,0.156,0.1296,0.1064,0.0686,0.0475,0.0145,0.0208,0.0093,0.0041,0.0002,-0.0097,0.0238,0.021,0.0209,0.0209,0.0209,0.0209,0.0825,0.088,0.0961,0.1076,0.1176,0.1311,0.1411,0.1531,0.1664,0.1797,0.1767,0.1809,0.1485,0.0989,0.0672,0.02,0.0157,0.0074,-0.0022,-0.0064,-0.012,0.0231,0.0177,0.0176,0.0176,0.0175,0.0175,0,0.0878,0.0941,0.104,0.1175,0.1288,0.1339,0.1516,0.1627,0.1804,0.1957,0.2036,0.1971,0.1524,0.1055,0.0405,0.0057,-0.0091,-0.0126,-0.0181,-0.0243,0.0064,0.0095,0.0046,0.0046,0.0046,0.0046,0.0047,0.0047,0.0906,0.1003,0.1055,0.1244,0.1339,0.1505,0.1612,0.1791,0.195,0.2179,0.2288,0.2346,0.2081,0.0873,0.0068,-0.0155,-0.0399,-0.0421,-0.0583,-0.0357,-0.0345,-0.0334,-0.0321,-0.0456,-0.0457,-0.0815,-0.0819,-0.0822]}],[{"header":{"parameterUnit":"m.s-1","parameterCategory":2,"la1":30.2991,"la2":30.254,"lo1":-89.0895,"lo2":-89.0444,"dy":0.0017,"dx":0.0017,"nx":28,"ny":28,"refTime":"2024-04-28T09:00:00:Z","depth":"2","parameterNumber":2,"parameterNumberName":"U-component_of_CURRENTS"},"data":[0,0,0,0,0,0,0,0,0,0,0,0,0,0,0,0,0,0,0,0,0,0,0,0,0,0,0,0,0,0,0,0,0,0,0,0,0,0,0,0,0,0,0,0,0,0,0,0,0,0,0,0,0,0,0,0,0,0,0.3059,0.306,0,0.3081,0.3081,0.3081,0.3076,0.3076,0.3076,0.3076,0.3084,0.3085,0.3085,0,0,0,0,0,0,0,0,0,0,0,0,0,0.3017,0.3017,0.3059,0.306,0.306,0.3081,0.3081,0.3081,0.3076,0.3076,0.3076,0.3076,0.3084,0.3085,0.3085,0,0,0,0,0,0,0,0,0,0,0,0,0,0.3034,0.3018,0.3059,0.3062,0.3063,0.3081,0.3081,0.3081,0.3077,0.3076,0.3076,0.3076,0.3084,0.3085,0.3085,0.3094,0,0,0.3087,0.3087,0,0,0,0,0,0,0,0,0.3033,0.3035,0.3061,0.3062,0.3063,0.3078,0.307,0.3086,0.3077,0.3069,0.3076,0.3076,0.3083,0.3084,0.3085,0.3094,0.3094,0.3087,0.3087,0.3087,0.3088,0,0,0,0,0,0,0,0.3032,0.3034,0.3065,0.3062,0.3063,0.3064,0.3066,0.3072,0.3075,0.3069,0.307,0.3076,0.3083,0.3084,0.3085,0.3094,0.3087,0.3087,0.3088,0.3088,0.323,0.3233,0,0,0,0,0,0,0.3035,0.3033,0.3064,0.3066,0.305,0.3065,0.3067,0.3071,0.3075,0.3076,0.3077,0.3076,0.3083,0.3084,0.3085,0.3175,0.3087,0.3088,0.3088,0.3226,0.323,0.3234,0,0,0,0,0,0,0.3034,0.3037,0.3064,0.3052,0.3056,0.3067,0.3071,0.3072,0.3085,0.3081,0.3081,0.309,0.3083,0.3084,0.3124,0.3172,0.3088,0.3089,0.3222,0.3228,0.3232,0.3304,0,0,0,0,0,0,0.3032,0.3037,0.304,0.3053,0.3057,0.3092,0.3072,0.3073,0.309,0.309,0.3093,0.3093,0.3083,0.3123,0.3124,0.3171,0.3089,0.3218,0.3225,0.3231,0.3297,0.3311,0.3323,0,0,0,0,0,0.3031,0.3039,0.304,0.3044,0.3061,0.3094,0.3097,0.3101,0.3091,0.3109,0.3121,0.3093,0.3165,0.3126,0.3126,0.3175,0.3215,0.3223,0.323,0.3292,0.3308,0.3322,0,0,0,0,0,0,0.3018,0.304,0.3041,0.3054,0.3081,0.3094,0.3108,0.3111,0.3131,0.3131,0.3122,0.3125,0.3183,0.3176,0.3132,0.3242,0.3192,0.32,0.3238,0.3254,0.3266,0.3256,0.309,0,0,0,0,0,0.3018,0.3034,0.3057,0.307,0.3084,0.3098,0.311,0.3118,0.3138,0.3146,0.3151,0.3174,0.3214,0.3229,0.3254,0.33,0.3272,0.3341,0.3353,0.3364,0.3361,0.3359,0.3369,0.326,0.3259,0.3259,0,0,0.3016,0.3032,0.3039,0.307,0.3086,0.3116,0.3105,0.3134,0.3171,0.3144,0.3193,0.3212,0.3239,0.3301,0.3327,0.3299,0.3388,0.3373,0.3382,0.3373,0.3367,0.3377,0.3386,0.3265,0.3264,0.3263,0,0,0.3024,0.3037,0.3054,0.3081,0.3117,0.3135,0.315,0.3177,0.3204,0.326,0.3261,0.3308,0.3356,0.3386,0.3409,0.3508,0.3455,0.3528,0.3577,0.3575,0.3583,0.3589,0.3581,0.3585,0.3532,0.3533,0.3533,0,0.302,0.3038,0.3066,0.3094,0.3114,0.3148,0.3173,0.3219,0.3259,0.3278,0.3291,0.3373,0.3402,0.347,0.3527,0.3533,0.3515,0.3509,0.3586,0.3592,0.3597,0.3587,0.3591,0.3537,0.3537,0.3536,0.3536,0,0.3037,0.3059,0.3076,0.3122,0.3156,0.3184,0.3247,0.3288,0.3327,0.3357,0.3435,0.3483,0.3518,0.3565,0.3586,0.365,0.3621,0.3597,0.3533,0.3611,0.3597,0.36,0.3543,0.3542,0.354,0.3539,0,0,0.3008,0.3071,0.3077,0.3094,0.3167,0.3191,0.3272,0.3333,0.3371,0.3443,0.3486,0.3602,0.3604,0.3634,0.3661,0.3693,0.3743,0.3674,0.3672,0.364,0.3731,0.3693,0.3692,0.372,0.3721,0.3722,0.3709,0,0.3009,0.3047,0.3089,0.3135,0.3156,0.3217,0.3285,0.3351,0.3419,0.3476,0.3548,0.3609,0.364,0.3667,0.3705,0.3736,0.3753,0.3748,0.3682,0.368,0.3615,0.3695,0.3414,0.3378,0.3712,0.3712,0.3712,0,0.3005,0.3031,0.3064,0.3124,0.314,0.3181,0.3263,0.3331,0.3432,0.3484,0.3545,0.3593,0.3679,0.3687,0.3748,0.3738,0.3742,0.3761,0.3759,0.3695,0.3648,0.3355,0.337,0.3716,0.3716,0.3716,0.3715,0,0.295,0.3012,0.3031,0.3052,0.3135,0.3163,0.3215,0.3317,0.3378,0.3481,0.3525,0.3601,0.3661,0.3679,0.3752,0.374,0.3801,0.3769,0.3728,0.3724,0.3459,0.3431,0.3784,0.3784,0.3784,0.3784,0.3784,0,0.2926,0.2941,0.3003,0.3012,0.3048,0.312,0.3178,0.3248,0.3346,0.341,0.3512,0.3575,0.3666,0.3722,0.3743,0.376,0.3779,0.3748,0.3725,0.3482,0.3458,0.3725,0.3718,0.3783,0.3783,0.3783,0.3783,0,0.287,0.2909,0.2932,0.2999,0.3023,0.305,0.315,0.3187,0.3299,0.3385,0.342,0.3564,0.3646,0.3717,0.3774,0.3754,0.3767,0.3755,0.3477,0.3423,0.3685,0.3683,0.3688,0.3687,0.3686,0.3685,0.3684,0,0.2845,0.2849,0.2906,0.2916,0.2946,0.3,0.3034,0.3149,0.3201,0.3374,0.3402,0.3534,0.3607,0.3684,0.3673,0.3671,0.3752,0.3409,0.3348,0.3701,0.3678,0.3678,0.3677,0.3019,0.3013,0.3008,0.3004,0,0.2796,0.2815,0.2832,0.2851,0.2876,0.2909,0.2972,0.3001,0.3142,0.3229,0.3332,0.3406,0.3506,0.3405,0.344,0.34,0.339,0.3309,0.3722,0.3113,0.3076,0.3053,0.3072,0.2959,0.2963,0.2967,0.2969,0.2971,0.2756,0.275,0.2768,0.2775,0.2795,0.2791,0.278,0.2856,0.292,0.2996,0.3156,0.3164,0.3212,0.3125,0.3027,0.2947,0.3189,0.3037,0.3048,0.3066,0.3018,0.2984,0.2839,0.2843,0.2846,0.2849,0.2851,0,0.2688,0.2684,0.2686,0.2675,0.2635,0.2692,0.271,0.2665,0.2679,0.2784,0.2851,0.2653,0.2601,0.2629,0.2447,0.246,0.2392,0.2351,0.2233,0.2282,0.2325,0.2234,0.1849,0.1845,0.1842,0.1839,0,0,0.2654,0.2615,0.2603,0.2512,0.2497,0.2416,0.2392,0.2351,0.2377,0.234,0.2326,0.2501,0.2585,0.2191,0.2147,0.1962,0.2095,0.1879,0.2694,0.2608,0.2645,0.2748,0.2669,0,0,0,0,0]},{"header":{"parameterUnit":"m.s-1","parameterCategory":2,"la1":30.2991,"la2":30.254,"lo1":-89.0895,"lo2":-89.0444,"dy":0.0017,"dx":0.0017,"nx":28,"ny":28,"refTime":"2024-04-28T09:00:00:Z","depth":"2","parameterNumber":3,"parameterNumberName":"V-component_of_CURRENTS"},"data":[0,0,0,0,0,0,0,0,0,0,0,0,0,0,0,0,0,0,0,0,0,0,0,0,0,0,0,0,0,0,0,0,0,0,0,0,0,0,0,0,0,0,0,0,0,0,0,0,0,0,0,0,0,0,0,0,0,0,0.0199,0.0198,0,0.0141,0.014,0.0139,0.0105,0.0104,0.0104,0.0104,0.0065,0.0064,0.0063,0,0,0,0,0,0,0,0,0,0,0,0,0,0.0238,0.0238,0.0199,0.0198,0.0197,0.0141,0.014,0.0139,0.0105,0.0104,0.0104,0.0104,0.0065,0.0064,0.0063,0,0,0,0,0,0,0,0,0,0,0,0,0,0.0205,0.0238,0.0199,0.0173,0.017,0.0141,0.014,0.0139,0.0105,0.0104,0.0104,0.0104,0.0065,0.0064,0.0063,0.0059,0,0,0.0059,0.0058,0,0,0,0,0,0,0,0,0.0207,0.0203,0.0178,0.0175,0.0172,0.013,0.0139,0.0113,0.0105,0.0129,0.0104,0.0104,0.0089,0.0085,0.0074,0.0057,0.0055,0.0058,0.0058,0.0057,0.0057,0,0,0,0,0,0,0,0.0209,0.0205,0.0176,0.0177,0.0173,0.0151,0.0146,0.0134,0.0111,0.0127,0.0125,0.0119,0.0087,0.0076,0.0073,0.0055,0.0058,0.0057,0.0056,0.0056,0.0045,0.0045,0,0,0,0,0,0,0.0219,0.0208,0.0177,0.0174,0.0189,0.015,0.0145,0.0143,0.0111,0.0105,0.0119,0.0117,0.0078,0.0075,0.0072,0.0089,0.0057,0.0056,0.0055,0.0044,0.0045,0.0045,0,0,0,0,0,0,0.022,0.0217,0.018,0.0189,0.0183,0.015,0.0148,0.0142,0.0136,0.0104,0.0099,0.0119,0.0078,0.0074,0.0072,0.0087,0.0055,0.0054,0.0044,0.0044,0.0045,0.0109,0,0,0,0,0,0,0.0222,0.0218,0.0224,0.019,0.0183,0.0174,0.0148,0.0141,0.0132,0.013,0.0103,0.0099,0.0077,0.0074,0.0071,0.0084,0.0053,0.0043,0.0044,0.0045,0.0107,0.0112,0.0117,0,0,0,0,0,0.0224,0.0236,0.0225,0.0221,0.0191,0.0174,0.0169,0.0144,0.0133,0.0137,0.0119,0.01,0.0078,0.0074,0.0069,0.0083,0.0042,0.0044,0.0045,0.0104,0.0111,0.0117,0,0,0,0,0,0,0.0255,0.0232,0.022,0.0224,0.0205,0.0169,0.0172,0.0151,0.0139,0.0141,0.0109,0.0104,0.0106,0.0086,0.0083,0.0082,0.0056,0.0056,0.0102,0.0109,0.0114,0.0143,0.0052,0,0,0,0,0,0.0265,0.0271,0.024,0.0245,0.024,0.0207,0.0198,0.0181,0.0162,0.0156,0.0134,0.0116,0.0106,0.0102,0.0087,0.009,0.0062,0.0094,0.0099,0.0104,0.0124,0.0088,0.0092,0.0049,0.0049,0.0049,0,0,0.0278,0.0267,0.027,0.0253,0.0238,0.0244,0.0202,0.0197,0.0208,0.0155,0.0166,0.0135,0.0111,0.0113,0.0112,0.01,0.0099,0.0106,0.011,0.0128,0.0089,0.0093,0.0097,0.005,0.005,0.005,0,0,0.0311,0.0299,0.0316,0.0308,0.0291,0.0275,0.0277,0.0246,0.024,0.0241,0.0207,0.0188,0.0172,0.0154,0.0146,0.0172,0.0128,0.0162,0.0214,0.0178,0.0181,0.0184,0.0144,0.0143,0.0165,0.0165,0.0165,0,0.0326,0.0344,0.0318,0.0333,0.0338,0.0296,0.0318,0.0308,0.0279,0.0281,0.0258,0.0225,0.0196,0.0202,0.0208,0.0186,0.0155,0.0192,0.0185,0.0187,0.0189,0.0148,0.0145,0.0168,0.0168,0.0167,0.0167,0,0.037,0.0387,0.0398,0.0409,0.0409,0.0421,0.0405,0.0408,0.0393,0.037,0.0365,0.0317,0.0298,0.0279,0.0255,0.0253,0.0223,0.0195,0.0172,0.0197,0.0152,0.0148,0.0173,0.0172,0.0171,0.017,0,0,0.0403,0.0426,0.0431,0.0456,0.0453,0.0462,0.049,0.0498,0.0521,0.0479,0.0498,0.0457,0.0411,0.0399,0.035,0.0317,0.0289,0.0268,0.0264,0.0234,0.0206,0.0202,0.0197,0.0256,0.0256,0.0256,0.0166,0,0.0448,0.05,0.0496,0.0554,0.0583,0.0569,0.0602,0.0603,0.0591,0.0596,0.054,0.0529,0.0463,0.0449,0.0408,0.0325,0.0285,0.0316,0.0182,0.0179,0.0176,0.0195,0.0206,0.0129,0.0162,0.0161,0.0161,0,0.0496,0.0528,0.0589,0.0642,0.0654,0.0683,0.0731,0.0752,0.0745,0.0733,0.0702,0.0644,0.0597,0.0533,0.0409,0.043,0.0332,0.0257,0.0251,0.023,0.017,0.0109,0.012,0.0154,0.0155,0.0155,0.0156,0,0.0542,0.0598,0.0655,0.067,0.0715,0.0753,0.0782,0.0794,0.0829,0.0814,0.0826,0.0743,0.0716,0.0587,0.0435,0.0417,0.0294,0.0244,0.0146,0.0143,0.012,0.0116,0.0157,0.0157,0.0157,0.0157,0.0158,0,0.0597,0.0643,0.0686,0.0718,0.0805,0.0812,0.0894,0.091,0.0935,0.0988,0.0896,0.0914,0.0729,0.0633,0.0474,0.0313,0.0319,0.0169,0.0128,0.0141,0.0141,0.014,0.0139,0.0154,0.0155,0.0155,0.0156,0,0.0641,0.0662,0.0736,0.0799,0.083,0.0894,0.0982,0.1036,0.1047,0.1116,0.1115,0.1043,0.0922,0.0729,0.0524,0.0379,0.0211,0.0146,0.0176,0.0142,0.0067,0.0071,0.0024,0.0024,0.0023,0.0023,0.0022,0,0.0668,0.0708,0.0799,0.0852,0.0888,0.0981,0.1048,0.1093,0.1155,0.1204,0.1246,0.1154,0.1117,0.0818,0.0537,0.0266,0.0221,0.0089,0.006,0.0093,0.0057,0.0062,0.0066,0.0038,0.0038,0.0038,0.0037,0,0.0721,0.0749,0.0809,0.0921,0.1005,0.1108,0.121,0.1279,0.1341,0.1401,0.1463,0.144,0.1172,0.0908,0.0537,0.0342,0.0133,0.0077,0.0103,0.0084,0.0102,0.0069,0.0073,0.0036,0.0036,0.0036,0.0036,0.0036,0.0759,0.0813,0.0889,0.1001,0.1098,0.1225,0.132,0.1427,0.1547,0.1642,0.1617,0.1578,0.1287,0.0811,0.0488,0.0127,0.0148,0.0005,0.0006,0.0008,0.004,0.0058,-0.0013,-0.0013,-0.0013,-0.0013,-0.0013,0,0.0807,0.0869,0.0964,0.1093,0.1199,0.1252,0.1419,0.1505,0.1657,0.1739,0.1786,0.1483,0.1197,0.0844,0.0329,0.004,-0.0003,-0.0077,-0.0061,-0.0056,-0.0052,-0.0024,-0.0093,-0.0095,-0.0096,-0.0097,0,0,0.0832,0.0922,0.0972,0.115,0.1246,0.1397,0.1498,0.1624,0.1717,0.1789,0.1765,0.1715,0.1308,0.0916,0.0515,0.0215,0.0142,0.0141,0.0238,0.0311,0.0318,0.0027,0.0081,0,0,0,0,0]}],[{"header":{"parameterUnit":"m.s-1","parameterCategory":2,"la1":30.2991,"la2":30.254,"lo1":-89.0895,"lo2":-89.0444,"dy":0.0017,"dx":0.0017,"nx":28,"ny":28,"refTime":"2024-04-28T09:00:00:Z","depth":"4","parameterNumber":2,"parameterNumberName":"U-component_of_CURRENTS"},"data":[0,0,0,0,0,0,0,0,0,0,0,0,0,0,0,0,0,0,0,0,0,0,0,0,0,0,0,0,0,0,0,0,0,0,0,0,0,0,0,0,0,0,0,0,0,0,0,0,0,0,0,0,0,0,0,0,0,0,0.1975,0.1976,0,0.2026,0.2026,0.2027,0.208,0.2081,0.2082,0.2083,0.2158,0.2159,0.216,0,0,0,0,0,0,0,0,0,0,0,0,0,0.193,0.1931,0.1975,0.1976,0.1977,0.2026,0.2026,0.2027,0.208,0.2081,0.2082,0.2083,0.2158,0.2159,0.216,0,0,0,0,0,0,0,0,0,0,0,0,0,0.196,0.1931,0.1975,0.2011,0.2014,0.2026,0.2026,0.2027,0.208,0.2081,0.2083,0.2084,0.2157,0.2159,0.2161,0.2144,0,0,0.2166,0.2167,0,0,0,0,0,0,0,0,0.1959,0.1962,0.2005,0.2008,0.2013,0.205,0.2038,0.2068,0.208,0.2053,0.2083,0.2085,0.2124,0.2129,0.2132,0.2147,0.2151,0.2166,0.2167,0.2168,0.2168,0,0,0,0,0,0,0,0.1956,0.196,0.1994,0.2005,0.201,0.2026,0.2031,0.2044,0.208,0.2056,0.206,0.2068,0.2127,0.2131,0.2135,0.2152,0.2166,0.2168,0.2169,0.2169,0.2283,0.2285,0,0,0,0,0,0,0.1952,0.1958,0.1992,0.1995,0.199,0.2026,0.2032,0.2035,0.2079,0.2087,0.2067,0.207,0.2127,0.2133,0.2138,0.2232,0.2168,0.2169,0.217,0.2281,0.2283,0.2285,0,0,0,0,0,0,0.1951,0.1954,0.199,0.1979,0.1985,0.2025,0.2028,0.2035,0.2085,0.2088,0.2096,0.2114,0.2128,0.2135,0.2187,0.2231,0.217,0.2172,0.2279,0.2282,0.2284,0.2348,0,0,0,0,0,0,0.1949,0.1953,0.1976,0.1979,0.1986,0.2029,0.2027,0.2035,0.2085,0.2092,0.213,0.2136,0.213,0.2184,0.2188,0.2232,0.2173,0.2276,0.228,0.2283,0.2344,0.2353,0.2361,0,0,0,0,0,0.1947,0.1965,0.1977,0.1983,0.2009,0.203,0.2036,0.2067,0.2087,0.2116,0.2142,0.2137,0.2211,0.2187,0.2191,0.2237,0.2274,0.2279,0.2283,0.234,0.2351,0.2361,0,0,0,0,0,0,0.196,0.1972,0.1986,0.2009,0.2035,0.2041,0.2076,0.2092,0.2135,0.2154,0.2156,0.2164,0.2226,0.2223,0.2197,0.2282,0.2245,0.225,0.2286,0.2297,0.2306,0.2308,0.2175,0,0,0,0,0,0.1972,0.1994,0.2005,0.2033,0.2048,0.2071,0.2093,0.2112,0.2138,0.216,0.2184,0.2213,0.2239,0.2264,0.2282,0.2326,0.2328,0.2361,0.237,0.2377,0.2384,0.2436,0.245,0.23,0.23,0.23,0,0,0.1987,0.1998,0.2013,0.2039,0.2064,0.2085,0.209,0.2135,0.2163,0.216,0.2225,0.2247,0.2258,0.2308,0.2336,0.2318,0.2419,0.2383,0.2389,0.2391,0.2442,0.2457,0.247,0.2303,0.2303,0.2302,0,0,0.201,0.2039,0.206,0.2082,0.2123,0.2131,0.2155,0.2185,0.2219,0.2268,0.2279,0.2329,0.2368,0.2385,0.2396,0.2466,0.2463,0.2484,0.2532,0.2584,0.2596,0.2607,0.2618,0.2629,0.2489,0.249,0.249,0,0.2034,0.2048,0.2074,0.2097,0.2121,0.2156,0.2182,0.2214,0.2261,0.2293,0.2303,0.2386,0.24,0.2457,0.2485,0.2486,0.2505,0.2489,0.2595,0.2606,0.2616,0.2624,0.2636,0.2493,0.2493,0.2492,0.2492,0,0.2048,0.2082,0.2102,0.2136,0.217,0.2203,0.2238,0.2289,0.2333,0.2358,0.2444,0.247,0.252,0.2538,0.2533,0.2619,0.2605,0.2598,0.2565,0.2635,0.2639,0.265,0.2498,0.2497,0.2496,0.2495,0,0,0.2038,0.2098,0.211,0.2134,0.2194,0.2215,0.2281,0.2335,0.2387,0.2449,0.2518,0.2575,0.261,0.2625,0.2642,0.2687,0.277,0.2685,0.2686,0.2689,0.2871,0.2677,0.267,0.2795,0.2798,0.28,0.2839,0,0.2044,0.2084,0.2119,0.2172,0.2193,0.2254,0.2308,0.2372,0.2435,0.2512,0.2568,0.2641,0.2637,0.2685,0.2732,0.2769,0.2806,0.2759,0.2808,0.2808,0.2623,0.2679,0.2809,0.2847,0.285,0.2852,0.2853,0,0.2032,0.2062,0.2112,0.2183,0.2202,0.2251,0.2349,0.2405,0.2515,0.2571,0.266,0.2709,0.2799,0.2786,0.2882,0.2861,0.2876,0.289,0.2892,0.2696,0.2635,0.2767,0.2873,0.2871,0.287,0.2868,0.2867,0,0.1981,0.2054,0.2095,0.2119,0.2207,0.2264,0.2325,0.2434,0.2493,0.2632,0.2694,0.2795,0.2868,0.2918,0.2952,0.2941,0.3037,0.3016,0.2847,0.2832,0.2966,0.2954,0.3079,0.3079,0.3079,0.3079,0.3078,0,0.1941,0.198,0.2085,0.2104,0.2173,0.2253,0.2348,0.2426,0.2547,0.2615,0.2736,0.2794,0.2916,0.2976,0.2987,0.2941,0.3067,0.2857,0.2835,0.299,0.298,0.2973,0.296,0.308,0.308,0.3079,0.3079,0,0.1873,0.194,0.1995,0.2106,0.2151,0.221,0.2353,0.2403,0.2543,0.2641,0.2694,0.283,0.2903,0.2975,0.3053,0.2963,0.2952,0.2903,0.3053,0.3039,0.2701,0.2692,0.271,0.2704,0.2698,0.2694,0.269,0,0.1833,0.1857,0.1989,0.2028,0.209,0.2193,0.2249,0.2391,0.2444,0.2628,0.265,0.2785,0.2854,0.2791,0.2889,0.2882,0.2851,0.2813,0.276,0.2689,0.2668,0.2667,0.2665,0.2681,0.268,0.2678,0.2677,0,0.176,0.1832,0.1879,0.1961,0.2034,0.2096,0.2196,0.2216,0.2369,0.2518,0.2536,0.2562,0.2631,0.2665,0.2682,0.2675,0.282,0.2756,0.2767,0.2716,0.2655,0.2639,0.2643,0.2658,0.2661,0.2663,0.2664,0,0.1719,0.1737,0.1814,0.1867,0.195,0.1965,0.2034,0.2076,0.2142,0.2332,0.2332,0.2465,0.26,0.2558,0.2574,0.2552,0.2511,0.2413,0.2441,0.2463,0.2364,0.2249,0.2111,0,0,0,0,0,0.166,0.166,0.1704,0.1745,0.1815,0.1862,0.1971,0.2039,0.219,0.2136,0.2223,0.2268,0.2283,0.2351,0.2279,0.248,0.2534,0.2385,0.244,0.2554,0.2576,0.2483,0,0,0,0,0,0,0.1618,0.166,0.1661,0.1627,0.163,0.1687,0.1748,0.1849,0.1827,0.1988,0.2006,0.2125,0.2179,0.2301,0.2235,0.2256,0.224,0.2472,0.2465,0.2542,0.2562,0.2579,0.2491,0,0,0,0,0]},{"header":{"parameterUnit":"m.s-1","parameterCategory":2,"la1":30.2991,"la2":30.254,"lo1":-89.0895,"lo2":-89.0444,"dy":0.0017,"dx":0.0017,"nx":28,"ny":28,"refTime":"2024-04-28T09:00:00:Z","depth":"4","parameterNumber":3,"parameterNumberName":"V-component_of_CURRENTS"},"data":[0,0,0,0,0,0,0,0,0,0,0,0,0,0,0,0,0,0,0,0,0,0,0,0,0,0,0,0,0,0,0,0,0,0,0,0,0,0,0,0,0,0,0,0,0,0,0,0,0,0,0,0,0,0,0,0,0,0,0.0097,0.0097,0,0.0059,0.0059,0.0058,0.0027,0.0027,0.0027,0.0026,-0.0008,-0.0009,-0.0009,0,0,0,0,0,0,0,0,0,0,0,0,0,0.0127,0.0126,0.0098,0.0097,0.0097,0.0059,0.0059,0.0058,0.0027,0.0027,0.0027,0.0026,-0.0008,-0.0009,-0.0009,0,0,0,0,0,0,0,0,0,0,0,0,0,0.0104,0.0126,0.0098,0.0077,0.0074,0.0059,0.0059,0.0058,0.0027,0.0027,0.0026,0.0026,-0.0008,-0.0009,-0.001,-0.0005,0,0,-0.0012,-0.0013,0,0,0,0,0,0,0,0,0.0105,0.0103,0.008,0.0078,0.0075,0.0047,0.0056,0.0037,0.0028,0.0045,0.0026,0.0026,0.0011,0.0009,0.0003,-0.0007,-0.0008,-0.0012,-0.0013,-0.0013,-0.0014,0,0,0,0,0,0,0,0.0107,0.0104,0.0082,0.008,0.0077,0.0063,0.006,0.0053,0.0032,0.0044,0.0041,0.0037,0.001,0.0004,0.0002,-0.0009,-0.0012,-0.0013,-0.0014,-0.0014,-0.0012,-0.0011,0,0,0,0,0,0,0.0113,0.0106,0.0084,0.0081,0.0089,0.0063,0.0059,0.0057,0.0031,0.0027,0.0038,0.0036,0.0005,0.0003,0.0,0.0021,-0.0013,-0.0014,-0.0015,-0.0013,-0.0012,-0.0011,0,0,0,0,0,0,0.0114,0.0111,0.0085,0.0092,0.0088,0.0063,0.0061,0.0057,0.0052,0.0027,0.0022,0.0038,0.0005,0.0002,0.0003,0.0019,-0.0015,-0.0015,-0.0013,-0.0012,-0.0012,0.0052,0,0,0,0,0,0,0.0115,0.0112,0.0118,0.0093,0.0088,0.0085,0.0061,0.0056,0.005,0.0048,0.0026,0.0022,0.0004,0.0005,0.0002,0.0017,-0.0016,-0.0014,-0.0013,-0.0012,0.0049,0.0055,0.006,0,0,0,0,0,0.0116,0.0127,0.0118,0.0116,0.0095,0.0086,0.0083,0.0063,0.0051,0.0056,0.0042,0.0023,0.001,0.0005,0.0002,0.0017,-0.0015,-0.0013,-0.0012,0.0047,0.0054,0.006,0,0,0,0,0,0,0.0143,0.0124,0.0114,0.0119,0.0107,0.0081,0.0086,0.0069,0.0061,0.0061,0.0034,0.003,0.0036,0.0018,0.0013,0.0019,-0.0007,-0.0006,0.0039,0.0045,0.0051,0.007,-0.0017,0,0,0,0,0,0.0152,0.0157,0.0134,0.014,0.0136,0.0112,0.0108,0.0093,0.008,0.0075,0.0058,0.0043,0.0039,0.0036,0.0026,0.0033,0.0006,0.0039,0.0044,0.0049,0.0062,0.0031,0.0035,-0.0007,-0.0007,-0.0007,0,0,0.0164,0.0155,0.0158,0.0146,0.0137,0.0145,0.0109,0.0107,0.0118,0.0074,0.0086,0.0063,0.0045,0.0052,0.0053,0.004,0.0045,0.0051,0.0055,0.0065,0.0033,0.0037,0.0041,-0.0006,-0.0006,-0.0006,0,0,0.0194,0.0185,0.0199,0.0195,0.0184,0.0172,0.0174,0.0152,0.0148,0.0153,0.0125,0.0114,0.0105,0.0093,0.0088,0.0118,0.0076,0.011,0.0154,0.0124,0.0128,0.013,0.0097,0.0096,0.0112,0.0112,0.0113,0,0.0209,0.0224,0.0203,0.0217,0.0224,0.019,0.0211,0.0205,0.0185,0.0188,0.0168,0.0149,0.0128,0.0139,0.0147,0.0131,0.0104,0.0132,0.0132,0.0134,0.0135,0.01,0.0098,0.0116,0.0115,0.0115,0.0115,0,0.0248,0.0263,0.0275,0.0284,0.0288,0.0301,0.0289,0.0295,0.0283,0.0266,0.0268,0.0233,0.0221,0.0209,0.019,0.0193,0.0166,0.0142,0.0117,0.0143,0.0105,0.0102,0.012,0.0119,0.0118,0.0117,0,0,0.0274,0.0297,0.0302,0.0326,0.0327,0.0337,0.0364,0.0375,0.0395,0.0364,0.0384,0.0358,0.0321,0.0313,0.0275,0.0248,0.0228,0.0205,0.0202,0.0175,0.0158,0.0139,0.0133,0.0201,0.0201,0.0201,0.0125,0,0.0312,0.0358,0.0359,0.0412,0.0438,0.0432,0.0462,0.0467,0.0458,0.0466,0.0424,0.0421,0.0366,0.0359,0.0325,0.0256,0.0224,0.0251,0.0133,0.013,0.0113,0.013,0.0201,0.0122,0.0121,0.0121,0.012,0,0.0351,0.0379,0.0437,0.0487,0.0498,0.0529,0.0574,0.0595,0.0593,0.0584,0.0563,0.0518,0.0483,0.0429,0.0325,0.0343,0.0262,0.02,0.0195,0.0156,0.0106,0.009,0.0114,0.0115,0.0115,0.0116,0.0116,0,0.0382,0.0437,0.049,0.0505,0.0551,0.059,0.0619,0.0633,0.0662,0.0657,0.0665,0.0602,0.058,0.0475,0.0342,0.0332,0.0218,0.0186,0.0092,0.0088,0.0099,0.0097,0.0114,0.0114,0.0114,0.0115,0.0115,0,0.0422,0.0466,0.0516,0.0544,0.0622,0.0638,0.0711,0.0727,0.0754,0.079,0.0727,0.073,0.0589,0.0503,0.0372,0.0226,0.0237,0.0108,0.0073,0.0126,0.0129,0.0096,0.0095,0.0112,0.0112,0.0113,0.0113,0,0.0447,0.0475,0.0543,0.0609,0.0639,0.0697,0.0781,0.0824,0.0842,0.089,0.0892,0.0829,0.0715,0.0561,0.0389,0.0273,0.0128,0.0071,0.0146,0.0115,0.0009,0.0012,-0.0037,-0.0038,-0.0039,-0.004,-0.0041,0,0.0462,0.0499,0.059,0.0637,0.0675,0.0761,0.0819,0.0867,0.0911,0.0945,0.0966,0.0886,0.0818,0.057,0.0397,0.0151,0.0108,0.0027,0.0014,0.0025,-0.0004,0.0,0.0005,-0.0042,-0.0042,-0.0043,-0.0043,0,0.0489,0.0523,0.0576,0.0672,0.0748,0.0837,0.0922,0.0961,0.1016,0.1036,0.1024,0.0904,0.0779,0.0575,0.0387,0.0207,0.0077,0.0015,0.0016,0.0003,0.0018,-0.0009,-0.0004,-0.0046,-0.0046,-0.0046,-0.0045,0,0.0505,0.0546,0.0611,0.0701,0.0796,0.0884,0.0932,0.0988,0.1036,0.1069,0.1063,0.0934,0.0865,0.0604,0.043,0.0254,0.0198,0.0124,0.0118,0.0119,0.018,0.0222,0.02,0,0,0,0,0,0.0515,0.0554,0.0632,0.0725,0.0821,0.0879,0.0985,0.1023,0.1079,0.1077,0.1074,0.0956,0.0716,0.0616,0.0436,0.0387,0.0153,0.0167,0.006,-0.0066,-0.0062,-0.002,0,0,0,0,0,0,0.0515,0.0582,0.0622,0.073,0.0794,0.0902,0.0972,0.1013,0.1013,0.1044,0.0922,0.0887,0.0652,0.0815,0.0424,0.0374,0.0274,0.0065,0.006,-0.0068,-0.0065,-0.0061,-0.0016,0,0,0,0,0]}]]